Тишково

Россия / Московская область     56°05′21″N   37°44′17″E
темп.,
°C
ветер,
м/с
пор.,
м/с
влажн.,
%
обл.,
%
осадки,
мм/ч
давл.,
гПа
погр.,
м
18 апреля, вс
вс1800:00+8всв6146142 0.0 1021518
03:00+6всв5136861 0.0 1021493
06:00+5всв5147133 0.0 1021526
09:00+8всв610549 0.0 1021832
12:00+12всв694494 0.0 10211662
15:00+12вюв5949100 0.0 10211681
18:00+8юв4770100 0.0 1022512
21:00+8всв2771100 0.0 1023381
19 апреля, пн
пн1900:00+7всв5984100 0.4 10241142
03:00+6всв51089100 1.4 1024785
06:00+4всв51086100 0.2 1024512
09:00+4всв51081100 0.2 1025573
12:00+7всв686498 0.0 1025983
15:00+8всв6856100 0.0 10251283
18:00+5вюв51075100 0.0 10261051
21:00+3в41173100 0.1 10261134
20 апреля, вт
вт2000:00+3всв5105986 0.0 1024905
03:00+2всв51275100 0.0 1023710
06:00+1всв61393100 1.3 1022607
09:00+2в51295100 1.4 1022659
12:00+2в51294100 0.1 1022603
15:00+6в61180100 0.1 1020899
18:00+4в61291100 0.3 1019904
21:00+6в71579100 1.1 10151211
21 апреля, ср
ср2100:00+5в81783100 1.9 10111145
03:00+2в81896100 7.2 1007990
06:00+3в71695100 3.3 1004990
09:00+5вюв81593100 3.7 1003893
12:00+6вюв71594100 1.8 10011057
15:00+5ююв71386100 3.8 10021131
18:00+4ю71483100 0.1 10041366
21:00+3ююз81493100 0.3 10071266
22 апреля, чт
чт2200:00+3ююз71296100 0.2 10101067
03:00+3ююз51097100 0.4 10131071
06:00+3ююз41097100 0.4 1015811
09:00+6юз4885100 0.4 1018840
12:00+10ююз476290 0.0 10191191
15:00+12юз465266 0.3 10191737
18:00+11ююз226286 0.1 102151
21:00+7ююз12745 0.1 102211